OBJECT H

Satellite information

Favourite Embed

Satellite Type and Status

UNKNOWNIN ORBIT

Key statistics

Satellite OBJECT H at a glance.

Uptime

869

Days in orbit

Revolutions

≈ 15.5

Per day

Orbit

SSO

Sun Synchronous Orbit

Inclination

97.5

Latest

Satellite identification and parameters

Extended collection of information and parameters for OBJECT H.

Object identification

Identified? True

Debris? False

Object name: OBJECT H

International designator: 2023-085H

Object number (NORAD): 57011

Object ID (CCSDS): 57011

Country: PEOPLES REPUBLIC OF CHINA (PRC)

Current information (Y/N): Y

RCS size: MEDIUM

Orbital parameters

Period: 92.818 minutes

Inclination: 97.4759 deg

SMA: 6790.683 km

Apoapsis: 414.639 km

Periapsis: 410.458 km

RAAN: 57.4631 deg

Eccentricy: 0.00030787

Argument of periapsis: 106.012 deg

Mean anomaly: 254.1472 deg

Mean motion: 15.51431247 rev/day

Mean motion (dot): 0.00085443 rev/day2

B* drag term: 0.0014374065 1/REarth

Two-line elements (TLE)

Creation date: Oct. 31, 2025, 3 a.m.

Reference frame: TEME

Reference center: EARTH

Epoch: Oct. 30, 2025, 11:28 p.m. UTC

TLE line 0: 0 OBJECT H

TLE line 1: 1 57011U 23085H 25303.97800304 .00085443 00000-0 14374-2 0 9991

TLE line 2: 2 57011 97.4759 57.4631 0003079 106.0120 254.1472 15.51431247132264

Live tracking on map

Real-time ground track for satellite OBJECT H.

In-orbit conjunctions

There are no conjunctions computed for OBJECT H, at the moment. Check back to stay up to date, as we update our databases every day.

Go to all conjunctions

Associated space launch

41 new satellites for the Jilin-1 commercial Earth observation satellites constellation. Satellites list: Jilin-1 GF-03D 19~26 Jilin-1 GF-06A 01~30 Jilin-1 PT-02A 01~02 Khorgas-1 (Jilin-1 IR-A ??)

OBJECT H was lifted into orbit during the mission ‘Long March 2D | 41 x Jilin-1’, on board a Long March 2D space rocket.

The launch took place on June 15, 2023, 5:30 a.m. from Launch Complex 9.

For more information about the launch, click the button.

Launch to space Long March 2D | 41 x Jilin-1
Long March 2D | 41 x Jilin-1

Agency: N/A

Status: Launch Successful

Launch date: June 15, 2023, 5:30 a.m. UTC

Rocket: Long March 2D

Launch pad: Launch Complex 9

Location: Taiyuan Satellite Launch Center, People's Republic of China

...

Latest news about this satellite

There are no fresh news available about this satellite. Check back as we update our databases every day.


Newsletter sign-up

Weekly statistics, charts and insights to help you stay on top of the space industry.